[Date Prev][Date Next][Thread Prev][Thread Next] - [Date Index][Thread Index][Author Index]
2 Line ISS Keps 4-29
- Subject: [sarex] 2 Line ISS Keps 4-29
- From: "Dave Larsen PhD" <doc@xxxxxxxxxxx>
- Date: Tue, 29 Apr 2003 03:14:31 -0700
ISS
1 25544U 98067A 03119.12314815 .00016177 00000-0 21223-3 0 9433
2 25544 51.6332 266.7456 0007160 62.3196 282.7428 15.58681639253341
----
Via the sarex mailing list at AMSAT.ORG courtesy of AMSAT-NA.
To unsubscribe, send "unsubscribe sarex" to Majordomo@amsat.org
AMSAT Home